GFSGL_prec_sndepth_198.txt.gz
Snowfall_Accumulation
0.0 0.0 0.0 0.0 0.0 0.0 0.0 0.0 0.0 0.0 0.0 0.0 0.0 0.0 0.0 0.0 0.0 0.0 0.0 0.0 0.0 0.0 0.0 0.0 0.0 0.0 0.0 0.0 0.0 0.0 0.0 0.0 0.0 0.0 0.0 0.0 0.0 0.0 0.0 0.0 0.0 0.0 0.0
0.0 0.0 0.0 0.0 0.0 0.0 0.0 0.0 0.0 0.0 0.0 0.0 0.0 0.0 0.0 0.0 0.0 0.0 0.0 0.0 0.0 0.0 0.0 0.0 0.0 0.0 0.0 0.0 0.0 0.0 0.0 0.0 0.0 0.0 0.0 0.2 0.1 0.0 0.0 0.0 0.0 0.0 0.0
0.0 0.0 0.0 0.0 0.0 0.0 0.0 0.0 0.0 0.0 0.0 0.0 0.0 0.0 0.0 0.0 0.0 0.0 0.0 0.0 0.0 0.0 0.0 0.0 0.0 0.0 0.0 0.0 0.0 0.0 0.0 0.0 0.0 0.0 0.2 0.1 0.2 0.1 0.1 0.1 0.0 0.0 0.0
0.0 0.0 0.0 0.0 0.0 0.0 0.0 0.0 0.0 0.0 0.0 0.0 0.0 0.0 0.0 0.0 0.0 0.0 0.0 0.0 0.0 0.0 0.0 0.0 0.0 0.0 0.0 0.0 0.0 0.0 0.0 0.1 0.1 0.1 0.2 0.2 0.2 0.3 0.3 0.4 0.7 0.4 0.4
0.0 0.0 0.0 0.0 0.0 0.0 0.0 0.0 0.0 0.0 0.0 0.0 0.0 0.0 0.0 0.0 0.0 0.0 0.0 0.0 0.0 0.0 0.0 0.0 0.0 0.0 nan nan 0.0 0.0 0.0 0.1 0.2 0.3 0.4 0.4 0.3 0.5 0.7 0.6 1.1 0.8 0.5
0.0 0.0 0.0 0.0 0.0 0.0 0.0 0.0 0.0 0.0 0.0 0.0 0.0 0.0 0.0 0.0 nan nan 0.0 0.0 0.0 0.0 0.0 0.0 0.0 0.0 0.0 nan nan nan nan 0.0 0.1 0.9 0.5 0.4 0.1 0.6 1.0 1.5 1.8 2.7 3.1
0.0 0.0 0.0 0.0 0.0 0.0 0.0 0.0 0.0 0.0 0.0 0.1 0.1 0.0 0.0 0.0 nan nan nan 0.0 0.0 0.0 0.0 0.0 0.0 0.0 0.1 0.0 nan nan nan nan nan 0.0 0.1 0.2 0.6 0.3 0.6 1.4 1.1 2.2 1.6
0.0 0.0 0.1 0.1 0.2 0.3 0.3 0.2 0.2 0.1 0.1 0.1 0.1 0.0 0.0 0.0 nan nan nan 0.0 0.0 0.0 0.0 0.0 0.0 0.0 0.0 0.1 0.1 0.2 0.1 0.1 0.0 0.0 0.1 0.1 0.1 0.1 0.1 0.2 0.5 0.9 1.7
0.2 0.3 0.3 0.3 0.4 0.3 0.4 0.3 0.3 0.3 0.2 0.1 0.1 0.2 0.2 0.1 nan nan 0.0 0.0 0.0 0.0 0.0 0.0 0.0 0.1 nan nan 0.2 0.8 1.3 0.7 nan nan nan nan nan nan nan 1.9 7.6 9.6 5.9
0.3 0.3 0.3 0.3 0.6 0.6 0.5 0.7 0.7 0.5 0.6 1.3 0.5 0.5 0.1 0.4 nan nan nan 0.9 0.5 1.0 0.2 0.1 0.6 0.1 nan nan 0.4 1.4 3.6 1.4 1.1 1.9 0.9 0.2 nan nan nan 0.2 1.9 8.5 6.4
1.3 1.1 1.2 1.0 1.3 0.6 0.8 0.7 1.2 1.4 1.0 1.6 1.9 1.1 1.0 0.4 0.1 nan nan 0.4 1.4 2.6 2.5 2.1 1.2 nan nan nan nan 1.7 2.6 1.1 2.8 2.6 2.5 2.6 1.9 1.5 1.8 1.2 0.6 1.8 5.9
1.8 2.0 2.2 2.3 1.6 1.4 2.5 2.0 2.9 2.5 2.9 2.9 2.9 2.6 2.3 0.9 nan nan nan nan nan 4.2 2.6 2.1 1.5 nan nan nan 1.2 nan nan 1.7 4.6 5.7 6.6 6.2 4.5 3.8 2.5 1.7 0.5 0.6 0.7
4.0 5.1 4.6 3.9 3.1 2.7 3.5 3.2 4.5 3.3 4.5 3.0 4.0 3.8 3.0 2.9 2.3 nan nan nan nan 3.0 2.0 2.0 nan nan nan nan nan nan 1.6 4.7 6.0 10.1 7.7 4.9 3.5 2.7 1.5 2.3 1.4 1.7 1.4
6.2 4.2 3.5 4.0 3.1 3.6 3.6 3.8 5.4 5.3 4.7 4.9 5.9 5.9 4.3 4.8 3.8 3.2 3.7 2.1 2.5 3.3 nan 2.8 nan 3.0 nan nan 3.2 3.5 5.6 6.3 7.9 9.2 8.1 4.8 3.4 4.7 6.3 4.8 7.4 6.8 10.7
5.8 4.3 4.3 4.8 4.9 4.2 3.5 4.5 4.9 3.0 5.5 9.5 10.2 7.1 10.6 11.3 8.2 3.6 7.2 9.1 7.1 6.6 5.9 10.2 9.8 7.2 7.5 7.2 8.6 7.8 6.7 7.7 9.1 8.8 9.9 9.1 8.9 8.9 9.1 7.4 8.4 10.8 13.9
4.4 5.7 4.6 4.8 4.5 4.3 5.3 5.7 nan nan nan nan nan 7.7 8.9 nan nan nan nan nan nan nan 18.2 20.5 13.5 12.2 10.8 10.9 12.3 11.8 10.8 9.0 10.3 11.6 11.7 11.1 12.1 11.1 11.8 12.1 11.5 13.8 15.7
6.8 5.5 6.5 5.5 6.9 7.9 8.9 9.8 10.4 9.1 nan nan nan nan nan nan nan nan nan nan nan nan 28.3 18.8 18.2 14.5 14.2 12.7 13.8 13.2 12.8 11.5 11.1 13.5 12.8 13.8 14.5 15.1 15.2 14.7 12.8 12.3 15.7
8.4 3.1 9.7 9.7 9.8 10.9 11.4 12.0 12.2 13.1 13.9 12.5 nan nan nan nan nan nan nan nan 26.5 nan 23.9 26.0 23.0 19.7 17.5 16.8 15.2 15.5 14.8 14.2 13.7 14.7 14.8 18.1 19.1 20.6 18.7 17.9 15.3 17.9 16.8
11.6 10.7 11.5 12.2 12.6 12.8 13.5 12.7 12.7 13.0 13.8 15.6 15.1 15.6 8.3 nan nan nan nan 18.6 25.9 24.0 24.4 24.9 21.7 22.2 20.2 20.7 19.5 20.4 18.4 18.8 18.5 22.0 21.4 22.8 21.2 21.8 20.5 16.1 13.9 9.0 10.1
14.6 6.0 11.2 16.4 15.5 14.6 12.5 14.2 13.5 13.7 14.5 15.7 15.7 15.1 19.9 17.8 24.1 25.1 22.0 26.9 26.3 24.6 22.5 24.4 24.6 26.8 26.6 24.8 24.4 23.2 23.2 23.5 21.9 22.9 22.9 21.7 20.3 21.2 16.2 19.8 17.9 16.2 16.8
18.5 17.1 4.3 16.8 18.9 19.0 19.2 17.1 14.7 17.1 15.8 17.0 15.0 14.7 nan 19.9 20.7 22.3 24.7 24.0 25.9 27.6 24.7 25.9 26.4 31.2 31.3 33.2 29.4 28.4 27.0 19.5 22.6 24.4 25.4 24.8 24.3 27.9 19.1 14.2 17.9 18.9 18.8
18.3 18.9 19.2 20.9 17.1 17.5 18.9 15.5 16.5 16.5 16.3 15.4 14.6 15.0 nan 17.4 19.1 19.5 19.7 23.6 25.8 25.7 27.8 31.0 30.5 32.2 30.0 28.7 27.0 25.7 22.7 25.2 26.4 25.9 22.9 23.4 26.1 23.4 22.8 17.4 17.7 16.2 19.6
17.2 16.3 17.6 18.4 18.2 8.3 21.1 22.6 20.2 19.2 17.5 17.2 15.6 15.1 17.0 20.4 17.8 17.3 23.0 25.3 21.7 20.9 23.0 24.2 22.9 22.5 20.9 23.3 21.2 20.6 22.2 24.0 24.4 30.0 23.6 24.0 23.7 25.8 23.6 21.4 19.4 20.9 19.7
18.5 18.8 18.2 19.6 17.8 16.2 17.7 18.3 16.4 6.8 16.6 17.3 24.2 20.7 13.8 17.0 22.4 18.4 18.6 21.1 17.9 26.5 20.7 21.7 19.0 18.6 19.6 26.5 31.4 30.9 32.7 33.9 33.4 31.4 29.1 22.5 22.2 18.5 20.1 21.6 17.6 16.6 15.0
18.6 16.5 16.3 15.3 20.3 17.0 16.2 18.5 13.5 17.2 19.7 16.2 19.0 14.8 15.5 15.0 16.4 21.0 19.8 16.8 18.6 17.4 15.2 15.3 15.5 15.7 16.1 16.7 21.9 26.4 25.6 4.7 18.4 5.0 27.0 20.5 23.2 23.4 22.9 19.7 18.0 15.8 13.9
14.0 14.6 15.0 15.4 15.4 16.4 16.9 16.6 17.0 14.2 17.3 18.2 17.4 17.6 15.6 15.6 15.4 17.7 16.7 16.9 14.3 14.6 14.8 15.7 15.2 13.5 13.0 14.8 15.7 6.9 4.4 3.9 22.5 4.5 24.2 20.3 22.3 21.2 21.2 21.3 19.9 18.3 15.0

GFSGL_prec_sndepth_201.txt.gz
Snowfall_Accumulation
0.0 0.0 0.0 0.0 0.0 0.0 0.0 0.0 0.0 0.0 0.0 0.0 0.0 0.0 0.0 0.0 0.0 0.0 0.0 0.0 0.0 0.0 0.0 0.0 0.0 0.0 0.0 0.0 0.0 0.0 0.0 0.0 0.0 0.0 0.0 0.0 0.0 0.0 0.0 0.0 0.0 0.0 0.0
0.0 0.0 0.0 0.0 0.0 0.0 0.0 0.0 0.0 0.0 0.0 0.0 0.0 0.0 0.0 0.0 0.0 0.0 0.0 0.0 0.0 0.0 0.0 0.0 0.0 0.0 0.0 0.0 0.0 0.0 0.0 0.0 0.0 0.0 0.0 0.2 0.1 0.0 0.0 0.0 0.0 0.0 0.0
0.0 0.0 0.0 0.0 0.0 0.0 0.0 0.0 0.0 0.0 0.0 0.0 0.0 0.0 0.0 0.0 0.0 0.0 0.0 0.0 0.0 0.0 0.0 0.0 0.0 0.0 0.0 0.0 0.0 0.0 0.0 0.0 0.0 0.0 0.1 0.1 0.2 0.1 0.1 0.0 0.0 0.0 0.0
0.0 0.0 0.0 0.0 0.0 0.0 0.0 0.0 0.0 0.0 0.0 0.0 0.0 0.0 0.0 0.0 0.0 0.0 0.0 0.0 0.0 0.0 0.0 0.0 0.0 0.0 0.0 0.0 0.0 0.0 0.0 0.0 0.1 0.1 0.2 0.2 0.2 0.3 0.3 0.4 0.7 0.4 0.4
0.0 0.0 0.0 0.0 0.0 0.0 0.0 0.0 0.0 0.0 0.0 0.0 0.0 0.0 0.0 0.0 0.0 0.0 0.0 0.0 0.0 0.0 0.0 0.0 0.0 0.0 nan nan 0.0 0.0 0.0 0.1 0.2 0.3 0.4 0.3 0.3 0.5 0.7 0.5 1.1 0.8 0.5
0.0 0.0 0.0 0.0 0.0 0.0 0.0 0.0 0.0 0.0 0.0 0.0 0.0 0.0 0.0 0.0 nan nan 0.0 0.0 0.0 0.0 0.0 0.0 0.0 0.0 0.0 nan nan nan nan 0.0 0.1 0.8 0.5 0.4 0.1 0.6 1.0 1.4 1.8 2.7 3.1
0.0 0.0 0.0 0.0 0.0 0.0 0.0 0.0 0.0 0.0 0.0 0.0 0.0 0.0 0.0 0.0 nan nan nan 0.0 0.0 0.0 0.0 0.0 0.0 0.0 0.1 0.0 nan nan nan nan nan 0.0 0.1 0.2 0.6 0.3 0.6 1.4 1.1 2.2 1.5
0.0 0.0 0.1 0.1 0.2 0.2 0.2 0.2 0.1 0.1 0.1 0.1 0.0 0.0 0.0 0.0 nan nan nan 0.0 0.0 0.0 0.0 0.0 0.0 0.0 0.0 0.1 0.1 0.1 0.1 0.1 0.0 0.0 0.1 0.1 0.1 0.1 0.1 0.2 0.5 0.9 1.7
0.1 0.2 0.2 0.2 0.3 0.2 0.3 0.2 0.2 0.2 0.1 0.1 0.1 0.1 0.1 0.1 nan nan 0.0 0.0 0.0 0.0 0.0 0.0 0.0 0.1 nan nan 0.2 0.8 1.3 0.7 nan nan nan nan nan nan nan 1.9 7.5 9.6 5.9
0.2 0.2 0.2 0.2 0.4 0.4 0.3 0.5 0.5 0.3 0.4 1.1 0.3 0.4 0.1 0.3 nan nan nan 0.8 0.4 0.9 0.1 0.1 0.6 0.1 nan nan 0.4 1.4 3.6 1.3 1.1 1.9 0.9 0.2 nan nan nan 0.1 1.9 8.5 6.3
1.0 0.8 0.8 0.7 1.0 0.4 0.6 0.5 0.9 1.1 0.8 1.4 1.7 0.9 0.9 0.3 0.1 nan nan 0.4 1.3 2.4 2.4 2.0 1.2 nan nan nan nan 1.7 2.5 1.1 2.7 2.6 2.5 2.5 1.9 1.5 1.8 1.2 0.5 1.8 5.8
1.4 1.6 1.8 1.9 1.3 1.0 2.2 1.7 2.6 2.1 2.5 2.6 2.6 2.3 2.0 0.8 nan nan nan nan nan 3.8 2.4 2.0 1.5 nan nan nan 1.2 nan nan 1.7 4.6 5.7 6.6 6.1 4.5 3.8 2.5 1.7 0.5 0.6 0.7
3.5 4.6 4.1 3.5 2.7 2.4 3.1 2.8 4.1 3.0 4.0 2.5 3.6 3.4 2.6 2.6 2.1 nan nan nan nan 2.7 1.9 1.9 nan nan nan nan nan nan 1.6 4.7 6.0 10.1 7.7 4.8 3.5 2.7 1.5 2.2 1.3 1.6 1.4
5.5 3.6 3.0 3.6 2.7 3.1 3.2 3.4 4.8 4.7 4.2 4.4 5.2 5.2 3.7 4.2 3.4 2.9 3.5 1.9 2.4 3.0 nan 2.6 nan 2.9 nan nan 3.2 3.4 5.6 6.3 7.9 9.1 8.1 4.8 3.3 4.7 6.3 4.7 7.3 6.8 10.6
5.0 3.9 3.6 4.1 4.1 3.5 3.0 4.0 4.3 2.5 4.8 8.5 9.2 6.4 9.3 9.9 7.3 3.2 6.6 8.4 6.6 6.1 5.6 9.4 9.6 7.2 7.5 7.1 8.6 7.8 6.7 7.9 9.3 8.8 10.0 9.2 8.9 8.9 9.0 7.4 8.3 10.7 13.9
3.8 5.1 4.0 4.2 3.9 3.8 4.6 5.0 nan nan nan nan nan 7.0 8.2 nan nan nan nan nan nan nan 18.1 20.4 13.5 12.2 10.8 10.9 12.3 11.8 10.8 9.1 10.3 11.7 11.8 11.2 12.1 11.1 11.7 12.0 11.4 13.7 15.6
6.2 5.3 6.5 5.5 6.2 7.2 8.4 8.5 9.1 8.3 nan nan nan nan nan nan nan nan nan nan nan nan 28.2 18.7 18.1 14.4 14.1 12.6 13.8 13.2 12.8 11.5 11.0 13.8 12.8 13.8 14.6 15.2 15.2 14.6 12.8 12.2 15.6
8.4 3.1 9.4 9.6 9.1 10.8 11.3 11.6 12.1 12.3 12.7 11.3 nan nan nan nan nan nan nan nan 26.1 nan 23.7 25.8 22.8 19.6 17.4 16.7 15.1 15.5 14.7 14.3 13.7 14.7 14.9 18.1 19.2 20.6 19.0 17.9 15.2 17.9 16.7
11.5 10.6 11.5 12.1 12.5 12.7 13.4 12.6 12.6 12.9 13.5 15.5 15.0 14.8 8.3 nan nan nan nan 17.5 25.6 23.8 24.2 24.7 21.4 21.8 20.0 20.5 19.4 20.3 18.3 18.7 18.4 21.9 21.4 22.7 21.2 21.9 20.6 16.1 14.0 9.0 10.1
14.5 6.0 11.1 16.3 15.4 14.5 12.4 14.1 13.4 13.6 14.3 15.6 15.6 15.0 19.7 17.6 23.8 24.9 21.8 26.7 26.1 24.4 22.0 24.2 24.1 25.6 26.2 24.6 24.2 23.1 23.2 23.4 21.8 22.9 22.8 21.7 20.3 21.3 16.4 19.8 18.0 16.3 16.8
18.3 17.0 4.3 16.7 18.7 18.8 19.0 17.0 14.6 16.9 15.6 16.9 14.9 14.6 nan 19.8 20.5 22.1 24.5 23.8 25.7 27.4 24.5 25.7 26.2 30.7 31.1 33.0 29.3 28.2 26.9 19.5 22.5 24.3 25.4 24.9 24.4 28.1 19.0 14.4 18.1 19.0 19.0
18.2 18.8 19.0 20.7 17.0 17.4 18.7 15.4 16.4 16.4 16.1 15.3 14.4 14.9 nan 17.3 18.9 19.4 19.6 23.4 25.6 25.5 27.6 30.8 30.3 32.0 29.8 28.5 26.8 25.6 22.6 25.1 26.3 25.9 22.9 23.5 26.2 23.6 23.0 17.7 18.0 16.5 19.8
17.1 16.2 17.4 18.3 18.0 8.2 20.9 22.4 20.0 19.0 17.3 17.1 15.5 15.0 16.9 20.2 17.7 17.2 22.8 25.1 21.6 20.8 22.8 24.0 22.7 22.4 20.8 23.1 21.1 20.6 22.2 24.0 24.3 30.0 23.8 24.1 23.9 25.9 23.9 21.8 19.8 21.2 20.0
18.4 18.7 18.1 19.5 17.7 16.1 17.6 18.1 16.3 6.8 16.5 17.1 24.0 20.5 13.8 16.9 22.2 18.3 18.5 20.9 17.8 26.4 20.5 21.6 18.9 18.5 19.5 26.3 31.2 30.8 32.6 33.7 33.4 31.4 29.1 22.8 22.3 18.7 20.4 22.0 18.0 16.9 15.5
18.4 16.4 16.2 15.2 20.2 16.9 16.1 18.3 13.4 17.1 19.6 16.1 18.9 14.7 15.4 15.0 16.3 20.9 19.7 16.7 18.5 17.3 15.2 15.2 15.4 15.6 16.1 16.7 21.8 26.3 25.5 4.7 18.4 5.1 27.1 20.7 23.3 23.5 23.2 20.0 18.5 16.4 14.4
13.9 14.5 14.9 15.3 15.3 16.3 16.8 16.5 16.9 14.2 17.2 18.1 17.3 17.5 15.5 15.6 15.3 17.6 16.7 16.8 14.2 14.6 14.8 15.6 15.2 13.5 13.0 14.7 15.7 6.9 4.4 3.9 22.5 4.5 24.3 20.6 22.4 21.3 21.5 21.6 20.5 19.1 15.6

GFSGL_prec_sndepth_207.txt.gz
Snowfall_Accumulation
0.0 0.0 0.0 0.0 0.0 0.0 0.0 0.0 0.0 0.0 0.0 0.0 0.0 0.0 0.0 0.0 0.0 0.0 0.0 0.0 0.0 0.0 0.0 0.0 0.0 0.0 0.0 0.0 0.0 0.0 0.0 0.0 0.0 0.0 0.0 0.0 0.0 0.0 0.0 0.0 0.0 0.0 0.0
0.0 0.0 0.0 0.0 0.0 0.0 0.0 0.0 0.0 0.0 0.0 0.0 0.0 0.0 0.0 0.0 0.0 0.0 0.0 0.0 0.0 0.0 0.0 0.0 0.0 0.0 0.0 0.0 0.0 0.0 0.0 0.0 0.0 0.0 0.0 0.2 0.1 0.0 0.0 0.0 0.0 0.0 0.0
0.0 0.0 0.0 0.0 0.0 0.0 0.0 0.0 0.0 0.0 0.0 0.0 0.0 0.0 0.0 0.0 0.0 0.0 0.0 0.0 0.0 0.0 0.0 0.0 0.0 0.0 0.0 0.0 0.0 0.0 0.0 0.0 0.0 0.0 0.1 0.1 0.2 0.1 0.1 0.0 0.0 0.0 0.0
0.0 0.0 0.0 0.0 0.0 0.0 0.0 0.0 0.0 0.0 0.0 0.0 0.0 0.0 0.0 0.0 0.0 0.0 0.0 0.0 0.0 0.0 0.0 0.0 0.0 0.0 0.0 0.0 0.0 0.0 0.0 0.0 0.0 0.1 0.2 0.2 0.2 0.3 0.3 0.4 0.7 0.4 0.4
0.0 0.0 0.0 0.0 0.0 0.0 0.0 0.0 0.0 0.0 0.0 0.0 0.0 0.0 0.0 0.0 0.0 0.0 0.0 0.0 0.0 0.0 0.0 0.0 0.0 0.0 nan nan 0.0 0.0 0.0 0.1 0.2 0.3 0.4 0.3 0.3 0.5 0.7 0.5 1.1 0.8 0.5
0.0 0.0 0.0 0.0 0.0 0.0 0.0 0.0 0.0 0.0 0.0 0.0 0.0 0.0 0.0 0.0 nan nan 0.0 0.0 0.0 0.0 0.0 0.0 0.0 0.0 0.0 nan nan nan nan 0.0 0.1 0.8 0.5 0.3 0.1 0.6 1.0 1.4 1.8 2.7 3.1
0.0 0.0 0.0 0.0 0.0 0.0 0.0 0.0 0.0 0.0 0.0 0.0 0.0 0.0 0.0 0.0 nan nan nan 0.0 0.0 0.0 0.0 0.0 0.0 0.0 0.1 0.0 nan nan nan nan nan 0.0 0.1 0.2 0.6 0.2 0.6 1.4 1.1 2.2 1.5
0.0 0.0 0.1 0.1 0.1 0.2 0.2 0.1 0.1 0.1 0.1 0.1 0.0 0.0 0.0 0.0 nan nan nan 0.0 0.0 0.0 0.0 0.0 0.0 0.0 0.0 0.1 0.1 0.1 0.1 0.1 0.0 0.0 0.1 0.1 0.1 0.1 0.1 0.2 0.5 0.9 1.7
0.1 0.1 0.2 0.2 0.2 0.2 0.2 0.2 0.2 0.2 0.1 0.1 0.1 0.1 0.1 0.1 nan nan 0.0 0.0 0.0 0.0 0.0 0.0 0.0 0.0 nan nan 0.2 0.8 1.3 0.7 nan nan nan nan nan nan nan 1.9 7.5 9.6 5.9
0.2 0.2 0.2 0.2 0.3 0.3 0.3 0.5 0.5 0.3 0.4 1.1 0.3 0.4 0.1 0.3 nan nan nan 0.8 0.4 0.9 0.1 0.1 0.6 0.1 nan nan 0.4 1.4 3.6 1.3 1.1 1.9 0.9 0.2 nan nan nan 0.1 1.9 8.5 6.3
0.8 0.7 0.8 0.6 0.8 0.4 0.5 0.5 0.9 1.1 0.8 1.4 1.7 1.0 0.9 0.3 0.1 nan nan 0.4 1.3 2.4 2.4 2.0 1.2 nan nan nan nan 1.7 2.5 1.1 2.7 2.6 2.5 2.5 1.9 1.5 1.8 1.2 0.5 1.8 5.8
1.3 1.5 1.7 1.8 1.2 1.0 2.1 1.7 2.6 2.1 2.5 2.6 2.6 2.3 2.0 0.8 nan nan nan nan nan 3.8 2.4 2.0 1.5 nan nan nan 1.2 nan nan 1.7 4.6 5.7 6.6 6.1 4.5 3.8 2.5 1.7 0.5 0.6 0.7
3.3 4.5 3.9 3.5 2.7 2.4 3.0 2.8 4.1 3.0 4.0 2.5 3.6 3.4 2.6 2.6 2.1 nan nan nan nan 2.7 1.9 1.9 nan nan nan nan nan nan 1.6 4.7 6.1 10.2 7.7 4.8 3.4 2.7 1.5 2.2 1.3 1.6 1.4
5.2 3.6 3.1 3.6 2.7 3.1 3.2 3.3 4.7 4.7 4.2 4.4 5.2 5.2 3.7 4.2 3.4 2.9 3.5 1.9 2.4 3.0 nan 2.6 nan 2.9 nan nan 3.2 3.4 5.6 6.4 8.0 9.1 8.1 4.8 3.3 4.7 6.3 4.7 7.4 6.8 10.8
4.9 3.9 3.6 4.1 4.0 3.5 3.1 4.0 4.3 2.5 4.8 8.3 9.1 6.4 9.3 9.9 7.3 3.3 6.6 8.4 6.6 6.1 5.6 9.4 9.5 7.2 7.5 7.1 8.6 7.7 6.6 7.8 9.5 8.9 10.1 9.3 9.1 9.0 9.1 7.4 8.5 10.9 14.1
3.8 5.1 4.0 4.1 3.9 3.7 4.5 5.0 nan nan nan nan nan 7.0 8.2 nan nan nan nan nan nan nan 17.9 20.2 13.4 12.1 10.7 10.8 12.3 11.7 10.7 9.0 10.2 11.7 12.1 11.4 12.3 11.2 11.7 12.1 11.6 14.0 15.9
6.2 5.3 6.5 5.5 6.2 7.2 8.3 8.5 9.1 8.3 nan nan nan nan nan nan nan nan nan nan nan nan 27.9 18.5 17.9 14.3 14.0 12.5 13.6 13.0 12.7 11.4 11.0 13.9 12.8 13.9 14.7 15.5 15.4 14.8 12.9 12.3 15.8
8.3 3.1 9.4 9.5 9.0 10.7 11.3 11.5 12.0 12.2 12.6 11.3 nan nan nan nan nan nan nan nan 25.8 nan 23.4 25.5 22.5 19.3 17.2 16.5 14.9 15.3 14.6 14.2 13.8 14.6 14.9 18.0 19.3 20.7 19.3 18.0 15.3 18.0 16.8
11.4 10.5 11.4 12.0 12.4 12.6 13.3 12.5 12.6 12.8 13.4 15.4 14.9 14.7 8.2 nan nan nan nan 17.4 25.2 23.5 23.9 24.4 21.2 21.7 19.9 20.4 19.3 20.1 18.3 18.7 18.4 22.0 21.3 22.6 21.2 22.1 20.9 16.1 14.2 9.2 10.2
14.4 6.0 11.0 16.1 15.3 14.4 12.3 13.9 13.3 13.5 14.2 15.5 15.5 14.9 19.5 17.4 23.5 24.6 21.5 26.4 25.8 24.2 21.8 23.9 23.8 25.4 26.0 24.4 24.1 23.1 23.2 23.4 21.8 22.8 22.8 21.7 20.3 21.4 16.7 19.9 18.3 16.7 17.1
18.2 16.9 4.3 16.5 18.5 18.6 18.9 16.8 14.5 16.8 15.5 16.8 14.9 14.5 nan 19.6 20.3 21.9 24.2 23.5 25.4 27.1 24.3 25.4 25.9 30.3 30.8 32.7 29.0 27.9 26.7 19.4 22.4 24.2 25.2 24.7 24.3 28.2 19.0 14.6 18.2 19.3 19.3
18.0 18.6 18.8 20.5 16.8 17.3 18.6 15.3 16.3 16.2 16.0 15.2 14.3 14.8 nan 17.2 18.8 19.2 19.4 23.2 25.4 25.3 27.4 30.5 30.0 31.7 29.5 28.3 26.7 25.4 22.5 24.9 26.1 25.7 22.8 23.3 26.0 23.5 23.0 18.0 18.2 16.8 20.2
16.9 16.0 17.3 18.2 17.9 8.2 20.8 22.2 19.9 18.9 17.2 17.0 15.4 14.9 16.8 20.1 17.6 17.2 22.7 24.9 21.4 20.7 22.6 23.8 22.6 22.2 20.7 23.0 21.0 20.5 22.2 23.9 24.2 29.8 23.7 24.0 23.8 25.8 23.8 21.9 19.8 21.5 20.3
18.3 18.6 18.0 19.5 17.7 16.1 17.4 18.0 16.2 6.8 16.4 17.1 23.9 20.4 13.7 16.8 22.1 18.2 18.4 20.8 17.7 26.2 20.5 21.5 18.8 18.4 19.4 26.2 31.0 30.5 32.3 33.5 33.2 31.3 29.0 22.8 22.3 18.7 20.4 22.0 18.1 17.1 15.8
18.4 16.5 16.4 15.3 20.1 16.8 16.0 18.2 13.3 17.1 19.5 16.0 18.9 14.7 15.4 14.9 16.3 20.8 19.6 16.6 18.4 17.2 15.1 15.2 15.4 15.6 16.0 16.6 21.7 26.1 25.4 4.7 18.3 5.1 26.9 20.7 23.3 23.5 23.3 20.2 18.6 16.6 14.8
13.9 14.4 14.9 15.2 15.2 16.2 16.7 16.4 16.8 14.1 17.2 18.0 17.2 17.5 15.5 15.5 15.3 17.5 16.6 16.7 14.2 14.5 14.7 15.6 15.1 13.5 13.0 14.7 15.6 6.9 4.4 3.9 22.3 4.5 24.3 20.7 22.4 21.3 21.4 21.7 20.5 19.3 15.9

GFSGL_prec_sndepth_210.txt.gz
Snowfall_Accumulation
0.0 0.0 0.0 0.0 0.0 0.0 0.0 0.0 0.0 0.0 0.0 0.0 0.0 0.0 0.0 0.0 0.0 0.0 0.0 0.0 0.0 0.0 0.0 0.0 0.0 0.0 0.0 0.0 0.0 0.0 0.0 0.0 0.0 0.0 0.0 0.0 0.0 0.0 0.0 0.0 0.0 0.0 0.0
0.0 0.0 0.0 0.0 0.0 0.0 0.0 0.0 0.0 0.0 0.0 0.0 0.0 0.0 0.0 0.0 0.0 0.0 0.0 0.0 0.0 0.0 0.0 0.0 0.0 0.0 0.0 0.0 0.0 0.0 0.0 0.0 0.0 0.0 0.0 0.2 0.1 0.0 0.0 0.0 0.0 0.0 0.0
0.0 0.0 0.0 0.0 0.0 0.0 0.0 0.0 0.0 0.0 0.0 0.0 0.0 0.0 0.0 0.0 0.0 0.0 0.0 0.0 0.0 0.0 0.0 0.0 0.0 0.0 0.0 0.0 0.0 0.0 0.0 0.0 0.0 0.0 0.1 0.1 0.2 0.1 0.1 0.0 0.0 0.0 0.0
0.0 0.0 0.0 0.0 0.0 0.0 0.0 0.0 0.0 0.0 0.0 0.0 0.0 0.0 0.0 0.0 0.0 0.0 0.0 0.0 0.0 0.0 0.0 0.0 0.0 0.0 0.0 0.0 0.0 0.0 0.0 0.0 0.0 0.1 0.2 0.2 0.2 0.3 0.3 0.4 0.6 0.4 0.4
0.0 0.0 0.0 0.0 0.0 0.0 0.0 0.0 0.0 0.0 0.0 0.0 0.0 0.0 0.0 0.0 0.0 0.0 0.0 0.0 0.0 0.0 0.0 0.0 0.0 0.0 nan nan 0.0 0.0 0.0 0.1 0.2 0.3 0.4 0.3 0.3 0.5 0.6 0.5 1.1 0.8 0.5
0.0 0.0 0.0 0.0 0.0 0.0 0.0 0.0 0.0 0.0 0.0 0.0 0.0 0.0 0.0 0.0 nan nan 0.0 0.0 0.0 0.0 0.0 0.0 0.0 0.0 0.0 nan nan nan nan 0.0 0.1 0.8 0.5 0.3 0.1 0.6 1.0 1.4 1.8 2.7 3.1
0.0 0.0 0.0 0.0 0.0 0.0 0.0 0.0 0.0 0.0 0.0 0.0 0.0 0.0 0.0 0.0 nan nan nan 0.0 0.0 0.0 0.0 0.0 0.0 0.0 0.1 0.0 nan nan nan nan nan 0.0 0.1 0.2 0.6 0.2 0.6 1.4 1.1 2.2 1.5
0.0 0.0 0.1 0.1 0.1 0.2 0.1 0.1 0.1 0.1 0.1 0.1 0.0 0.0 0.0 0.0 nan nan nan 0.0 0.0 0.0 0.0 0.0 0.0 0.0 0.0 0.1 0.1 0.1 0.1 0.1 0.0 0.0 0.0 0.1 0.1 0.1 0.1 0.2 0.5 0.9 1.7
0.1 0.1 0.2 0.2 0.2 0.2 0.2 0.2 0.2 0.2 0.1 0.1 0.1 0.1 0.1 0.1 nan nan 0.0 0.0 0.0 0.0 0.0 0.0 0.0 0.0 nan nan 0.2 0.8 1.3 0.7 nan nan nan nan nan nan nan 1.9 7.5 9.6 5.9
0.2 0.2 0.2 0.2 0.3 0.3 0.3 0.5 0.5 0.3 0.4 1.1 0.3 0.4 0.1 0.3 nan nan nan 0.8 0.4 0.9 0.1 0.1 0.6 0.1 nan nan 0.4 1.4 3.6 1.3 1.1 1.9 0.9 0.2 nan nan nan 0.1 1.9 8.5 6.3
0.7 0.7 0.7 0.5 0.7 0.3 0.5 0.5 0.9 1.1 0.8 1.4 1.7 1.0 0.9 0.3 0.1 nan nan 0.4 1.3 2.4 2.4 2.0 1.2 nan nan nan nan 1.7 2.5 1.1 2.7 2.6 2.5 2.5 1.9 1.5 1.8 1.2 0.5 1.8 5.8
1.2 1.4 1.6 1.7 1.1 0.9 1.9 1.7 2.6 2.1 2.5 2.6 2.6 2.3 2.0 0.8 nan nan nan nan nan 3.8 2.4 2.0 1.5 nan nan nan 1.2 nan nan 1.7 4.6 5.7 6.6 6.1 4.5 3.8 2.5 1.7 0.5 0.6 0.7
3.1 4.1 3.6 3.4 2.6 2.3 2.8 2.8 4.1 3.0 4.0 2.5 3.5 3.4 2.6 2.6 2.1 nan nan nan nan 2.7 1.9 1.9 nan nan nan nan nan nan 1.6 4.7 6.1 10.2 7.7 4.8 3.4 2.7 1.5 2.2 1.3 1.6 1.4
5.0 3.6 2.9 3.2 2.7 3.1 3.2 3.2 4.6 4.7 4.2 4.4 5.2 5.2 3.7 4.2 3.4 2.9 3.5 1.9 2.4 3.0 nan 2.6 nan 2.9 nan nan 3.2 3.4 5.6 6.4 8.1 9.1 8.1 4.8 3.3 4.7 6.3 4.7 7.6 6.8 11.1
4.9 3.9 3.6 3.9 3.8 3.5 3.1 4.0 4.3 2.5 4.6 8.2 9.0 6.4 9.3 9.9 7.3 3.2 6.6 8.4 6.6 6.1 5.6 9.4 9.5 7.2 7.5 7.1 8.6 7.7 6.6 7.8 9.5 8.9 10.1 9.3 9.1 9.0 9.1 7.4 8.6 11.1 14.2
3.8 5.1 4.0 4.1 3.9 3.7 4.5 5.0 nan nan nan nan nan 7.0 8.2 nan nan nan nan nan nan nan 17.8 20.1 13.3 12.0 10.7 10.8 12.2 11.7 10.7 9.0 10.2 11.7 12.2 11.4 12.4 11.2 11.7 12.2 11.7 14.1 16.0
6.2 5.3 6.4 5.5 6.2 7.2 8.3 8.5 9.1 8.3 nan nan nan nan nan nan nan nan nan nan nan nan 27.7 18.5 17.8 14.2 13.9 12.5 13.6 13.0 12.7 11.4 10.9 13.9 12.8 13.9 14.7 15.5 15.4 14.8 12.9 12.4 15.8
8.3 3.1 9.4 9.5 9.0 10.6 11.2 11.5 12.0 12.2 12.6 11.3 nan nan nan nan nan nan nan nan 25.6 nan 23.3 25.3 22.4 19.3 17.1 16.5 14.9 15.3 14.6 14.2 13.8 14.7 15.0 18.1 19.4 20.7 19.4 18.1 15.3 18.0 16.8
11.3 10.5 11.3 12.0 12.3 12.5 13.2 12.4 12.5 12.8 13.4 15.3 14.9 14.6 8.2 nan nan nan nan 17.3 25.1 23.4 23.8 24.3 21.1 21.5 19.8 20.3 19.2 20.0 18.3 18.7 18.4 21.9 21.2 22.6 21.2 22.1 20.8 16.1 14.2 9.2 10.2
14.3 5.9 11.0 16.0 15.2 14.3 12.2 13.9 13.3 13.4 14.2 15.4 15.5 14.9 19.4 17.3 23.4 24.5 21.4 26.2 25.7 24.0 21.7 23.9 23.7 25.3 25.9 24.4 24.1 23.0 23.1 23.4 21.7 22.7 22.7 21.7 20.3 21.4 16.7 19.9 18.3 16.8 17.1
18.2 16.9 4.3 16.5 18.4 18.6 18.8 16.8 14.5 16.7 15.5 16.8 14.9 14.5 nan 19.5 20.2 21.8 24.1 23.4 25.3 26.9 24.2 25.3 25.9 30.2 30.7 32.6 28.9 27.9 26.6 19.3 22.4 24.1 25.2 24.6 24.2 28.1 19.0 14.7 18.3 19.2 19.3
18.8 19.6 19.7 20.9 17.1 17.3 18.6 15.2 16.2 16.2 16.1 15.2 14.4 14.9 nan 17.1 18.8 19.2 19.4 23.2 25.3 25.2 27.3 30.4 29.9 31.6 29.5 28.3 26.6 25.4 22.5 24.8 26.0 25.7 22.8 23.3 25.9 23.5 22.9 17.9 18.2 16.8 20.2
17.3 16.2 17.4 18.2 17.9 8.2 20.9 22.4 20.3 19.1 17.4 17.2 15.5 14.9 16.7 20.1 17.6 17.2 22.7 24.9 21.4 20.6 22.6 23.8 22.5 22.2 20.6 22.9 20.9 20.4 22.1 23.8 24.2 29.8 23.7 24.0 23.7 25.7 23.8 21.8 19.8 21.5 20.3
19.1 19.2 18.2 19.7 18.1 16.9 18.1 18.3 16.4 6.8 16.4 17.0 23.8 20.4 13.7 16.8 22.1 18.2 18.4 20.8 17.7 26.2 20.4 21.5 18.7 18.4 19.4 26.1 30.9 30.4 32.2 33.4 33.1 31.2 28.9 22.7 22.3 18.6 20.4 22.0 18.1 17.1 15.9
18.4 17.1 17.6 16.7 21.0 17.2 16.3 18.3 13.4 17.0 19.4 16.0 18.8 14.6 15.4 14.9 16.2 20.8 19.6 16.6 18.4 17.2 15.1 15.1 15.4 15.6 16.0 16.6 21.7 26.1 25.3 4.7 18.2 5.1 26.9 20.7 23.3 23.4 23.2 20.2 18.6 16.6 14.8
14.4 14.7 15.0 15.3 15.2 16.2 16.7 16.3 16.7 14.1 17.1 17.9 17.2 17.4 15.5 15.5 15.2 17.5 16.6 16.7 14.2 14.5 14.7 15.5 15.1 13.4 12.9 14.6 15.6 6.9 4.4 3.9 22.2 4.5 24.3 20.7 22.4 21.3 21.4 21.7 20.5 19.4 15.9